Flag for India Weather past 2 weeks in Kolkata, West Bengal, India

82 °F

Passing clouds.

Feels Like: 92 °F
Forecast: 78 / 85 °F
Wind: 5 mph from Northeast

Location: Calcutta / Dum Dum

Current Time: Oct 7, 2015 at 9:38:47 PM

Latest Report: Oct 7, 2015 at 8:50 PM

Visibility: 2 mi

Pressure: 29.74 "Hg

Humidity: 89%

Dew point: 79 °F

Location of KolkataLocation

Historic Weather in Kolkata — Graph


Kolkata temperature yesterday

Maximum temperature yesterday: 93 °F (at 11:20 AM)
Minimum temperature yesterday: 82 °F (at 3:20 AM)
Average temperature yesterday: 87 °F

Past Weeks' High & Low Weather Summary

High97 °F (Sep 25, 2:20 PM)100% (Sep 23, 5:50 PM)29.92 "Hg (Sep 23, 5:50 PM)
Low75 °F (Sep 23, 5:50 PM)42% (Sep 25, 2:20 PM)29.59 "Hg (Sep 24, 2:50 AM)
Average86 °F77%29.74 "Hg
* Reported Sep 22 7:50 PM — Oct 7 8:20 PM, Kolkata, Weather by CustomWeather, © 2015

Note: Actual official high and low records may vary slightly from our data, if they occured in-between our weather recording intervals... More about our weather records


Kolkata weather history for previous 24 hours

Time TempWeatherWind HumidityBarometerVisibility
8:20 PM
Wed, Oct 7
84 °FPassing clouds.3 mph84%29.74 "Hg2 mi
7:50 PM84 °FPassing clouds.6 mph84%29.74 "Hg2 mi
7:20 PM84 °FPartly cloudy.6 mph84%29.74 "Hg2 mi
6:50 PM84 °FPartly cloudy.3 mph84%29.71 "Hg2 mi
6:20 PM84 °FPartly cloudy.3 mph84%29.71 "Hg2 mi
5:50 PM84 °FPartly cloudy.3 mph84%29.71 "Hg2 mi
5:20 PM84 °FBroken clouds.7 mph84%29.71 "Hg2 mi
4:50 PM86 °FScattered clouds.6 mph79%29.68 "Hg2 mi
4:20 PM88 °FScattered clouds.7 mph75%29.68 "Hg2 mi
3:50 PM88 °FScattered clouds.8 mph75%29.71 "Hg2 mi
3:20 PM90 °FScattered clouds.12 mph71%29.68 "Hg2 mi
2:50 PM91 °FScattered clouds.8 mph63%29.68 "Hg2 mi
2:20 PM91 °FScattered clouds.8 mph63%29.68 "Hg3 mi
1:50 PM91 °FScattered clouds.7 mph63%29.71 "Hg3 mi
1:20 PM90 °FBroken clouds.7 mph67%29.71 "Hg3 mi
12:50 PM90 °FBroken clouds.7 mph67%29.71 "Hg3 mi
12:20 PM90 °FScattered clouds.6 mph71%29.74 "Hg2 mi
11:50 AM90 °FScattered clouds.6 mph71%29.74 "Hg2 mi
11:20 AM90 °FScattered clouds.7 mph71%29.77 "Hg2 mi
10:50 AM90 °FScattered clouds.7 mph75%29.77 "Hg2 mi
10:20 AM88 °FScattered clouds.7 mph79%29.77 "Hg2 mi
9:50 AM88 °FScattered clouds.7 mph79%29.80 "Hg2 mi
9:20 AM88 °FScattered clouds.7 mph79%29.80 "Hg2 mi
8:50 AM88 °FScattered clouds.8 mph79%29.77 "Hg2 mi
8:20 AM86 °FScattered clouds.7 mph84%29.80 "Hg2 mi
7:50 AM84 °FScattered clouds.6 mph84%29.77 "Hg2 mi
7:20 AM84 °FHaze.6 mph84%29.77 "Hg2 mi
6:50 AM82 °FHaze.5 mph89%29.74 "Hg2 mi
6:20 AM81 °FScattered clouds.5 mph89%29.74 "Hg2 mi
5:50 AM81 °FPassing clouds.3 mph89%29.71 "Hg2 mi
5:20 AM81 °FPassing clouds.5 mph89%29.71 "Hg2 mi
4:50 AM81 °FPassing clouds.3 mph89%29.71 "Hg2 mi
4:20 AM81 °FPassing clouds.3 mph89%29.71 "Hg2 mi
1:20 AM82 °FPassing clouds.No wind84%29.71 "Hg2 mi
12:50 AM82 °FPassing clouds.No wind84%29.71 "Hg2 mi
12:20 AM82 °FPassing clouds.No wind84%29.74 "Hg2 mi
11:50 PM
Tue, Oct 6
84 °FPassing clouds.No wind79%29.74 "Hg2 mi
11:20 PM84 °FPassing clouds.No wind74%29.74 "Hg2 mi
10:50 PM84 °FPassing clouds.No wind79%29.77 "Hg2 mi
10:20 PM84 °FPassing clouds.No wind79%29.74 "Hg2 mi
9:50 PM84 °FPassing clouds.No wind79%29.77 "Hg2 mi
9:20 PM84 °FPassing clouds.No wind79%29.77 "Hg2 mi
Weather by CustomWeather, © 2015

See weather overviewHow to use our weather pages